Location: Nairn
(57.5833°N, 3.8667°W)
Time: 16:25:39
(UTC+00:00)

GEOS 3 Rocket - Pass Details

Date: 07 August 2020
Orbit: 770 x 849 km, 115.0° (Epoch: 22 September)

Event Time Altitude Azimuth Distance (km) Brightness Sun altitude
Rises 02:11:38 0° 50° (NE) 3,411 8.2 -12.6°
Reaches altitude 10° 02:13:58 10° 53° (NE) 2,478 7.2 -12.5°
Maximum altitude 02:19:23 72° 138° (SE) 895 3.8 -12.2°
Enters shadow 02:23:51 16° 221° (SW) 2,108 5.1 -11.9°
